This demonstration page uses our WeatherBlox Daily Observations layout. Learn more.

Left ArrowRight Arrow

36.17497, -115.13722

Hourly Observations for March 1, 2020

Temp ( °F °C ) Dew Point ( °F °C ) Humidity (%) Winds ( mph kmh ) Pressure ( in mb ) Visibility ( mi km ) Precip ( " mm )
12:53 am 00:53 Clear 61 16.1 27 -2.8 27 27 SSW 24 39 29.76 1008 10 16.0934 0 0
1:53 am 01:53 Clear 60 15.6 28 -2.2 30 30 S 22 35 29.74 1007 10 16.0934 0 0
2:53 am 02:53 Clear 59 15 27 -2.8 29 29 S 18 30 29.74 1007 10 16.0934 0 0
3:53 am 03:53 Clear 58 14.4 26 -3.3 29 29 SSE 18 30 29.73 1007 10 16.0934 0 0
4:53 am 04:53 Clear 60 15.6 22 -5.6 23 23 WSW 21 33 29.73 1007 10 16.0934 0 0
5:53 am 05:53 Clear 58 14.4 21 -6.1 24 24 SW 14 22 29.73 1007 10 16.0934 0 0
6:53 am 06:53 Sunny 59 15 23 -5 25 25 SW 17 28 29.75 1007 10 16.0934 0 0
7:53 am 07:53 Sunny 59 15 25 -3.9 27 27 SSW 18 30 29.75 1008 10 16.0934 0 0
8:53 am 08:53 Sunny 62 16.7 27 -2.8 26 26 S 17 28 29.77 1008 10 16.0934 0 0
9:53 am 09:53 Sunny 62 16.7 27 -2.8 26 26 SSW 14 22 29.78 1008 10 16.0934 0 0
10:53 am 10:53 Sunny 64 17.8 24 -4.4 22 22 SW 20 31 29.75 1008 10 16.0934 0 0
11:53 am 11:53 Sunny 66 18.9 27 -2.8 23 23 WSW 21 33 29.74 1007 10 16.0934 0 0
12:53 pm 12:53 Sunny 65 18.3 28 -2.2 25 25 SW 22 35 29.71 1006 10 16.0934 0 0
1:53 pm 13:53 Sunny 63 17.2 28 -2.2 27 27 SW 20 31 29.7 1006 10 16.0934 0 0
2:53 pm 14:53 Sunny 63 17.2 28 -2.2 27 27 W 22 35 29.71 1006 10 16.0934 0 0
3:53 pm 15:53 Partly Cloudy 63 17.2 27 -2.8 26 26 SW 18 30 29.72 1007 10 16.0934 0 0
4:53 pm 16:53 Mostly Sunny 57 13.9 32 0 39 39 SW 10 17 29.75 1007 10 16.0934 0 0
5:53 pm 17:53 Clear 58 14.4 29 -1.7 33 33 W 6 9 29.76 1008 10 16.0934 0 0
6:37 pm 18:37 Clear 56 13.3 32 0 40 40 NW 22 35 29.74 1007 10 16.0934 0 0
6:53 pm 18:53 Mostly Clear 55 12.8 33 0.6 44 44 NW 21 33 29.8 1009 10 16.0934 0 0
7:53 pm 19:53 Mostly Clear 53 11.7 34 1.1 48 48 NW 22 35 29.83 1010 10 16.0934 0 0
8:53 pm 20:53 Cloudy with Light Rain 50 10 36 2.2 59 59 NW 16 26 29.87 1012 10 16.0934 0.001 0.001
9:53 pm 21:53 Cloudy with Light Rain 50 10 35 1.7 57 57 N 13 20 29.91 1013 10 16.0934 0.01 0.254
10:53 pm 22:53 Cloudy with Rain 47 8.3 37 2.8 69 69 NNW 10 17 29.94 1014 5 8.0467 0.13 3.302
11:53 pm 23:53 Cloudy with Light Rain 47 8.3 37 2.8 69 69 Calm 29.96 1015 10 16.0934 0.12 3.048

Powered by AerisWeather